Temperature
12 13 13 13 13 13 13 13 13 13 12 12 13 13 12 12 12 12 12 12 12 12 11 11 11 11 11 10 10 10 10 10 9 9 9 9 9 9 9 8 8 8 8
12 12 12 12 12 12 12 12 12 12 12 12 12 12 12 12 12 12 11 11 11 11 11 11 11 11 11 10 10 10 10 10 9 9 9 9 9 8 8 8 8 8 8
11 11 11 11 12 12 12 12 12 12 12 12 12 12 12 12 12 11 11 11 11 11 11 11 11 11 10 10 10 10 10 10 9 9 9 9 9 8 8 8 8 8 7
11 11 11 11 11 11 11 11 11 11 11 12 12 11 11 11 11 11 11 11 11 10 11 11 11 11 10 10 10 10 10 9 9 9 9 9 9 8 8 8 7 7 7
10 10 10 10 11 11 11 11 11 11 11 11 11 11 11 11 11 11 11 11 10 10 10 10 10 10 10 10 10 10 9 9 9 9 9 9 8 8 8 7 7 7 7
10 10 10 10 10 10 10 10 11 11 10 10 11 10 11 10 11 10 10 10 10 10 10 10 10 10 10 10 10 10 9 9 9 9 9 8 8 8 8 7 7 7 7
9 9 9 9 10 10 10 10 10 10 10 10 10 10 10 10 10 10 10 10 10 10 10 10 10 10 10 10 10 9 9 9 9 9 9 8 8 8 7 7 7 7 6
9 9 9 9 9 9 9 9 9 9 9 9 9 9 9 9 10 10 10 10 10 10 10 10 10 10 10 9 10 9 9 9 9 9 9 8 8 7 7 7 7 6 6
8 8 8 8 8 8 9 9 9 9 9 9 9 9 9 10 9 9 10 10 10 10 10 10 9 9 9 9 9 9 9 9 9 9 8 8 8 7 7 7 6 6 6
7 8 8 8 8 8 8 8 8 8 8 8 9 9 9 9 9 9 9 9 9 10 10 9 9 9 9 9 9 9 9 9 9 8 8 8 8 7 7 7 6 6 5
7 7 7 7 7 7 8 8 8 8 8 8 8 8 9 9 9 9 9 9 9 9 9 9 9 9 9 9 9 9 9 9 9 9 8 8 8 7 7 6 6 6 5
7 7 7 7 7 7 7 8 8 8 8 8 8 8 8 9 9 9 9 8 8 8 9 9 9 9 9 9 9 9 9 9 9 8 8 8 8 7 7 6 6 5 5
6 6 6 7 7 7 7 7 7 7 7 8 8 8 8 8 9 9 9 8 8 8 8 8 9 9 9 9 9 9 9 9 8 8 8 8 7 7 7 6 6 5 5
6 6 6 6 6 7 7 7 7 7 7 7 7 8 8 8 8 9 9 8 8 8 8 8 8 9 9 9 9 9 9 9 8 8 8 7 7 7 6 6 5 5 4
5 5 6 6 6 6 6 6 7 7 7 7 7 7 7 8 8 8 8 8 8 8 8 8 8 8 8 9 8 8 8 8 8 8 7 7 7 6 6 6 5 4 4
5 5 5 5 6 6 6 6 6 6 7 7 7 7 7 8 8 8 8 8 8 8 8 8 8 8 8 8 8 8 8 8 8 7 7 7 6 6 6 5 5 4 4
5 5 5 5 5 6 6 6 6 6 6 6 7 7 7 7 7 8 8 8 8 8 8 8 8 8 8 8 8 8 8 7 7 7 7 6 6 6 5 5 4 4 3
4 4 5 5 5 5 6 6 6 6 6 6 7 7 7 7 7 7 7 8 8 8 8 8 8 8 8 8 8 7 7 7 7 7 6 6 6 5 5 4 4 3 3
4 4 4 5 5 5 5 6 6 6 6 6 6 7 7 7 7 7 7 7 8 8 8 8 8 8 8 7 7 7 7 6 6 6 6 5 5 5 4 4 3 3 2
4 4 4 5 5 5 5 5 5 5 6 6 6 6 7 7 7 7 7 7 8 8 8 8 8 7 7 7 7 7 6 6 6 6 5 5 5 4 4 3 3 3 2
3 4 4 4 5 5 5 5 5 5 6 6 6 6 7 7 7 7 7 7 8 8 8 8 7 7 7 7 7 7 6 6 5 5 5 4 4 4 3 3 3 2 2
3 3 4 4 5 5 5 5 5 5 5 6 6 6 6 6 7 7 7 7 8 8 7 8 8 7 7 7 7 6 6 5 5 5 4 4 3 3 3 2 2 2 1
3 3 4 4 5 5 5 5 5 5 5 5 6 6 6 6 6 6 7 7 7 7 8 8 8 7 7 7 7 6 6 6 5 5 4 3 3 2 2 2 2 1 1
3 3 3 4 4 5 5 5 5 5 5 5 6 6 6 6 6 6 7 7 7 7 7 7 7 7 7 7 7 6 6 6 5 4 4 3 3 2 2 1 1 1 0
3 3 3 4 4 5 5 5 5 5 5 5 5 5 6 6 6 6 6 6 7 7 7 7 7 7 7 7 6 6 5 5 4 4 3 3 2 2 1 1 1 0 0
2 3 3 4 4 4 5 5 5 5 5 5 5 5 5 6 6 6 6 6 6 6 6 6 6 6 6 6 6 5 5 5 5 4 3 3 2 1 1 0 0 0 -0
Wind_Speed
5 5 5 6 7 7 8 8 10 11 11 12 12 12 12 12 12 11 10 13 14 14 14 14 14 13 12 12 11 11 9 8 7 5 4 3 3 2 3 4 5 6 7
6 5 6 6 7 7 8 9 11 10 10 9 11 12 12 12 12 12 11 13 14 14 15 15 14 14 13 12 12 11 10 9 8 7 6 4 4 4 4 5 5 6 8
7 6 6 6 6 7 8 8 10 9 9 9 11 12 10 11 12 13 12 12 13 14 14 15 15 14 14 13 12 12 11 10 9 8 6 6 5 5 5 6 6 7 7
8 7 7 7 7 7 7 7 8 8 9 10 9 9 9 9 12 13 12 12 12 13 15 15 15 15 14 14 13 12 12 11 10 8 7 7 7 7 7 7 7 7 8
9 8 7 8 8 7 7 8 8 9 9 9 9 9 9 9 10 11 13 13 13 12 13 14 14 14 13 14 13 12 11 10 9 9 8 8 8 8 8 8 8 9 9
9 9 8 9 8 7 7 8 9 9 9 9 8 8 8 9 9 10 12 12 12 13 14 13 13 12 13 13 13 12 12 11 10 9 9 8 8 8 8 8 8 9 9
9 9 8 9 9 9 10 10 9 10 9 7 6 5 5 7 9 9 10 11 12 13 14 14 12 11 11 13 13 13 13 12 11 10 10 9 8 8 8 8 8 9 10
8 8 9 9 10 9 11 11 10 9 8 8 7 5 4 5 7 9 9 10 12 11 12 14 13 12 11 11 11 12 12 12 12 11 10 9 8 8 8 8 8 9 9
9 9 11 10 10 10 10 12 12 12 10 9 9 7 6 6 5 7 10 11 11 10 11 12 13 13 13 11 11 12 13 12 12 11 10 9 9 8 8 8 8 9 9
10 10 11 11 11 11 11 12 12 11 11 10 9 8 7 4 5 5 8 10 12 12 12 11 11 12 12 11 11 11 12 12 12 12 10 9 9 8 8 7 7 8 9
10 10 11 11 11 11 12 12 12 13 11 11 10 8 7 6 7 5 6 9 9 10 10 11 10 10 12 12 11 12 13 13 12 11 10 9 9 8 8 7 7 8 8
9 11 11 11 12 11 12 12 12 14 13 14 12 10 9 8 8 7 7 9 9 8 10 9 10 9 10 11 12 13 13 13 12 11 9 8 8 7 7 7 6 7 8
9 11 11 11 11 12 12 12 13 13 14 14 13 12 11 11 9 7 7 7 7 5 6 8 9 9 9 10 11 14 13 13 12 11 9 8 7 6 6 6 6 6 7
11 12 12 12 13 13 13 13 12 13 13 14 14 14 11 10 9 9 8 7 7 5 6 7 7 9 9 9 10 14 12 13 13 11 10 8 7 6 5 5 5 6 6
11 12 12 12 13 14 14 13 12 13 13 13 13 14 11 10 9 9 8 9 8 7 8 7 6 9 9 9 10 11 10 12 13 11 10 9 7 6 5 4 4 5 5
12 13 12 13 13 13 14 13 13 13 14 13 11 14 12 10 10 9 8 9 9 8 6 6 5 7 9 7 10 10 9 11 12 11 10 9 8 6 5 4 3 4 4
12 13 13 13 13 13 13 13 13 13 14 13 12 13 13 12 10 9 9 9 8 8 7 5 4 6 9 9 8 8 9 9 8 10 10 10 8 7 5 4 3 3 4
12 13 13 13 14 13 13 14 14 13 14 14 14 14 13 11 12 10 9 10 9 8 7 7 5 6 8 9 8 8 7 6 7 9 10 9 8 7 6 4 3 3 4
12 13 13 13 14 14 14 14 13 13 14 13 13 14 14 13 12 10 11 9 8 7 7 7 6 5 5 7 8 6 6 5 5 7 8 9 8 7 6 5 3 2 3
12 12 12 13 14 13 13 13 12 12 12 12 12 14 14 14 13 13 11 10 8 8 8 7 6 6 6 6 7 6 6 5 4 5 5 6 7 7 7 5 3 3 3
11 11 12 12 12 11 11 12 11 10 11 11 11 12 13 13 13 12 10 10 9 8 7 8 7 6 6 7 7 6 6 5 4 3 4 4 4 4 4 4 3 3 3
10 11 11 12 12 10 11 12 10 10 11 11 11 11 10 11 11 11 12 11 11 11 10 9 7 9 9 9 8 8 7 6 4 4 4 3 3 3 2 2 2 2 3
10 11 11 12 12 11 11 12 10 10 10 10 10 9 8 9 10 9 9 9 9 10 12 11 10 10 10 10 10 10 9 7 4 5 4 3 3 2 2 2 2 2 2
10 10 11 10 10 10 12 12 10 10 9 10 10 10 10 9 10 9 9 7 7 6 8 7 8 8 8 10 10 9 9 7 5 4 3 2 2 2 2 2 3 2 2
10 9 9 9 9 9 12 12 10 8 7 8 8 9 10 10 11 11 9 8 7 4 4 7 7 7 9 11 11 9 9 7 4 3 2 2 2 1 1 2 2 2 2
9 8 8 8 8 9 10 11 11 7 7 6 6 7 10 11 12 11 10 10 10 7 7 7 7 8 8 10 10 7 8 7 5 4 3 3 3 2 1 1 1 1 1
Wind_Direction
251 252 244 229 225 218 209 209 211 207 207 202 200 200 201 201 200 197 187 185 198 201 199 193 191 190 190 189 190 187 187 189 192 200 209 221 240 263 293 308 317 320 322
252 247 250 243 233 225 216 214 213 208 206 203 203 203 204 204 205 200 197 191 198 204 204 201 199 197 196 196 197 194 195 197 201 209 217 225 240 260 280 294 301 308 312
253 248 246 243 238 232 222 219 215 208 206 205 206 205 206 207 208 204 201 199 199 201 205 206 205 204 202 202 202 202 202 203 208 214 220 228 244 260 273 283 291 297 303
253 249 244 244 240 235 225 219 214 210 208 207 206 205 207 207 212 209 204 203 203 202 202 205 209 208 208 209 208 208 208 210 213 218 223 233 246 258 269 276 282 289 296
253 250 244 241 240 235 230 223 217 211 211 211 208 206 206 207 210 211 209 206 206 205 205 197 203 209 212 214 215 213 212 216 219 222 228 235 246 257 266 272 280 288 295
255 252 248 240 236 234 231 226 222 217 214 211 208 211 210 209 211 213 213 209 208 207 209 204 203 205 209 216 219 217 216 220 222 226 232 240 248 258 267 273 283 291 296
258 252 250 243 235 231 230 228 228 221 216 205 203 209 219 220 218 217 213 209 208 206 208 208 209 208 206 209 216 220 220 222 223 226 231 238 246 258 267 277 286 293 298
259 252 248 244 237 234 232 226 225 224 218 202 199 192 207 219 220 218 216 212 209 206 210 211 212 210 210 210 205 208 219 223 226 229 232 238 248 260 267 278 286 294 299
260 253 249 246 238 233 232 227 223 222 220 212 206 203 200 212 198 206 213 212 208 205 208 210 213 212 212 212 208 203 210 221 229 234 236 240 249 256 264 275 285 291 296
259 253 248 247 241 235 232 229 225 224 220 215 213 223 229 213 196 195 204 208 208 208 207 207 209 209 210 211 211 208 203 214 225 232 236 242 248 254 263 273 281 289 295
259 253 247 245 242 237 232 229 226 225 222 219 215 213 218 221 214 208 207 203 205 209 208 207 205 205 205 208 210 207 201 209 218 225 231 237 245 253 260 268 280 289 295
261 255 250 244 243 238 232 229 226 226 226 224 221 215 213 209 204 206 209 206 210 212 206 205 206 204 202 205 207 199 197 203 210 216 223 230 239 248 258 266 279 290 299
262 257 253 247 244 239 233 230 228 226 227 225 225 222 220 222 211 206 202 204 208 209 205 207 207 203 199 201 201 194 195 197 204 208 214 219 227 236 251 267 278 289 300
258 257 254 250 246 241 236 231 229 227 227 225 225 224 223 222 213 208 203 201 202 212 208 206 197 200 196 198 194 186 193 194 199 201 205 207 211 222 239 258 274 287 299
258 254 253 249 246 240 235 232 228 226 227 225 224 222 221 220 213 211 206 205 205 210 213 208 200 194 191 191 181 189 194 190 192 195 194 196 203 209 222 243 263 283 296
258 254 251 248 246 242 236 231 229 225 225 225 222 219 219 217 211 208 207 213 214 212 216 205 205 188 181 182 183 190 191 180 184 188 190 192 197 202 213 226 248 275 294
261 253 250 248 245 240 235 229 226 224 224 223 220 217 216 212 207 206 205 211 212 208 207 205 200 181 180 180 177 182 181 184 183 186 191 193 194 196 199 213 233 261 290
266 253 250 249 244 238 232 229 226 223 222 221 217 213 213 209 207 204 205 209 205 203 200 195 192 182 185 181 175 175 177 179 182 181 190 191 188 188 193 200 217 256 293
271 259 250 250 244 237 232 228 223 223 222 221 217 212 209 204 205 204 205 205 198 196 193 185 188 177 173 169 169 169 172 174 176 178 184 187 185 185 188 192 209 252 287
270 264 254 251 242 233 229 224 219 221 224 222 219 213 208 204 203 204 204 200 191 188 185 179 179 172 170 165 169 174 177 177 174 176 179 183 181 182 185 190 210 242 276
269 266 261 252 240 230 223 216 216 219 222 220 219 214 209 204 205 206 201 194 190 190 184 180 180 175 176 172 180 176 177 164 169 177 174 180 181 184 187 192 209 240 270
271 269 264 251 237 226 214 212 216 221 219 216 214 211 205 198 200 200 194 194 195 195 191 187 189 187 192 185 173 170 166 167 179 176 178 180 179 180 183 197 192 233 266
272 269 267 253 235 222 208 210 217 221 215 213 209 204 201 197 194 196 185 186 199 198 194 191 192 196 192 185 174 173 176 173 166 160 167 174 171 185 175 179 182 223 269
271 268 263 250 238 219 204 206 212 213 211 210 204 200 196 198 198 188 184 188 192 198 195 192 194 192 185 176 175 172 163 136 109 132 161 167 169 187 180 188 167 215 268
279 272 263 251 239 221 200 200 201 205 204 203 200 198 194 196 187 175 179 179 173 168 132 136 140 142 147 152 153 144 147 147 145 152 162 158 147 161 202 209 176 206 257
283 279 266 250 236 224 201 193 194 194 195 193 194 196 194 191 183 178 181 178 176 171 151 130 123 117 129 140 146 158 163 162 146 152 163 155 144 149 181 197 220 247 268
Height
1476 1476 1477 1477 1478 1480 1481 1482 1484 1486 1488 1489 1491 1492 1494 1496 1498 1499 1500 1501 1503 1505 1507 1508 1509 1510 1511 1511 1512 1512 1512 1513 1513 1513 1513 1512 1512 1511 1510 1509 1508 1507 1505
1471 1472 1472 1473 1474 1475 1476 1477 1479 1481 1483 1484 1486 1488 1490 1492 1494 1496 1497 1498 1500 1502 1504 1506 1507 1508 1509 1509 1510 1510 1510 1511 1511 1511 1511 1511 1510 1509 1508 1507 1506 1505 1503
1467 1467 1468 1468 1469 1470 1471 1472 1474 1476 1478 1480 1481 1483 1485 1487 1489 1491 1493 1495 1497 1499 1501 1502 1504 1505 1506 1507 1507 1508 1508 1509 1509 1509 1509 1508 1508 1507 1506 1505 1504 1503 1501
1462 1463 1463 1464 1464 1465 1466 1466 1468 1470 1472 1474 1476 1478 1480 1482 1484 1487 1489 1490 1493 1495 1497 1499 1500 1502 1503 1504 1505 1505 1506 1506 1506 1506 1506 1506 1506 1505 1504 1503 1502 1500 1499
1457 1457 1458 1458 1459 1460 1461 1462 1463 1464 1466 1469 1471 1473 1475 1477 1479 1481 1483 1486 1488 1490 1493 1495 1496 1498 1500 1501 1502 1503 1503 1503 1504 1504 1504 1503 1503 1502 1501 1500 1499 1498 1496
1452 1452 1452 1452 1453 1454 1455 1456 1458 1459 1461 1464 1466 1468 1470 1472 1474 1476 1478 1480 1483 1486 1488 1490 1492 1494 1496 1497 1499 1499 1500 1500 1501 1501 1501 1500 1500 1499 1499 1498 1496 1495 1493
1446 1446 1446 1446 1447 1448 1450 1451 1453 1454 1456 1459 1461 1463 1465 1466 1468 1470 1472 1475 1478 1480 1483 1486 1488 1490 1491 1493 1494 1496 1497 1497 1497 1497 1497 1497 1497 1496 1495 1494 1493 1492 1490
1439 1440 1440 1440 1441 1442 1444 1445 1447 1448 1450 1452 1455 1458 1460 1462 1462 1464 1467 1470 1472 1474 1477 1481 1483 1485 1487 1488 1489 1491 1493 1494 1494 1494 1494 1494 1493 1493 1492 1491 1489 1488 1486
1433 1433 1433 1434 1434 1435 1437 1438 1440 1443 1444 1446 1449 1452 1453 1454 1457 1459 1461 1463 1466 1469 1472 1475 1477 1480 1482 1484 1485 1487 1488 1490 1490 1490 1490 1490 1490 1489 1488 1487 1486 1484 1482
1426 1426 1426 1427 1428 1429 1430 1431 1434 1436 1439 1439 1442 1445 1447 1447 1450 1453 1456 1458 1460 1463 1466 1469 1472 1474 1476 1478 1480 1482 1484 1485 1486 1486 1486 1486 1486 1485 1485 1483 1482 1480 1478
1419 1419 1419 1419 1420 1422 1423 1424 1426 1429 1432 1433 1435 1437 1440 1442 1443 1446 1448 1452 1454 1457 1460 1463 1466 1469 1471 1473 1475 1477 1479 1480 1481 1482 1482 1482 1482 1481 1480 1479 1477 1476 1474
1412 1412 1412 1412 1413 1414 1415 1417 1419 1422 1425 1427 1429 1431 1433 1435 1437 1439 1442 1445 1448 1451 1454 1457 1460 1463 1465 1468 1470 1472 1474 1475 1476 1477 1477 1478 1477 1477 1476 1475 1473 1472 1470
1405 1405 1405 1405 1405 1407 1408 1410 1412 1414 1417 1419 1422 1424 1427 1430 1432 1434 1437 1439 1443 1445 1448 1451 1453 1457 1459 1462 1465 1467 1468 1470 1471 1472 1473 1473 1473 1472 1471 1470 1469 1467 1466
1398 1398 1398 1397 1398 1399 1401 1403 1405 1407 1410 1412 1415 1417 1420 1423 1426 1428 1431 1434 1437 1440 1442 1444 1447 1450 1454 1457 1459 1462 1463 1465 1466 1467 1468 1468 1468 1468 1467 1466 1465 1463 1461
1391 1391 1390 1390 1391 1392 1394 1395 1397 1399 1402 1404 1407 1410 1413 1416 1419 1422 1425 1428 1431 1432 1436 1439 1442 1444 1448 1451 1454 1456 1458 1460 1460 1462 1462 1463 1463 1463 1462 1461 1461 1459 1457
1383 1383 1382 1383 1383 1385 1386 1388 1389 1392 1395 1397 1400 1403 1406 1409 1413 1416 1419 1423 1426 1428 1430 1433 1436 1439 1442 1445 1448 1451 1453 1454 1455 1456 1457 1458 1459 1458 1458 1457 1456 1455 1453
1375 1375 1374 1375 1376 1377 1378 1380 1382 1384 1387 1390 1393 1396 1399 1403 1406 1410 1413 1416 1420 1423 1424 1427 1431 1434 1437 1440 1443 1446 1448 1449 1450 1451 1452 1453 1454 1454 1453 1453 1452 1451 1449
1368 1367 1367 1367 1368 1369 1371 1373 1375 1377 1380 1383 1386 1389 1393 1397 1400 1403 1407 1410 1414 1417 1420 1422 1426 1429 1432 1435 1438 1441 1443 1444 1445 1447 1448 1449 1449 1449 1449 1449 1448 1447 1445
1360 1358 1359 1359 1360 1362 1364 1366 1368 1371 1373 1376 1379 1382 1386 1390 1393 1397 1401 1405 1408 1412 1415 1417 1421 1424 1427 1430 1433 1436 1438 1439 1441 1442 1444 1444 1445 1445 1445 1445 1444 1443 1441
1353 1351 1351 1351 1352 1354 1356 1359 1362 1364 1367 1369 1373 1376 1380 1383 1387 1391 1395 1399 1402 1406 1410 1413 1416 1419 1421 1425 1428 1430 1433 1435 1437 1438 1439 1440 1440 1441 1441 1441 1440 1439 1438
1346 1345 1344 1345 1345 1347 1349 1352 1355 1357 1360 1363 1367 1370 1374 1377 1382 1386 1390 1393 1397 1401 1404 1407 1411 1414 1416 1419 1422 1425 1428 1430 1432 1433 1434 1435 1436 1437 1437 1437 1436 1436 1435
1340 1338 1337 1338 1339 1340 1343 1346 1349 1352 1354 1357 1360 1364 1368 1372 1376 1381 1385 1389 1393 1396 1399 1402 1405 1408 1411 1414 1417 1420 1423 1425 1427 1430 1431 1432 1433 1433 1433 1434 1433 1433 1432
1334 1332 1331 1331 1332 1335 1338 1341 1343 1346 1349 1352 1355 1359 1362 1367 1372 1376 1380 1384 1388 1391 1395 1398 1400 1403 1406 1409 1412 1415 1418 1420 1423 1425 1427 1428 1429 1430 1430 1430 1430 1430 1429
1327 1326 1325 1326 1327 1329 1333 1335 1338 1342 1345 1348 1350 1353 1357 1362 1367 1371 1375 1379 1383 1386 1390 1394 1397 1400 1403 1406 1408 1411 1414 1417 1419 1421 1423 1425 1425 1426 1427 1428 1428 1427 1426
1322 1321 1320 1321 1322 1324 1327 1331 1334 1337 1340 1343 1346 1350 1353 1358 1362 1366 1371 1374 1377 1381 1385 1389 1392 1395 1398 1401 1404 1407 1409 1412 1414 1417 1419 1421 1422 1423 1424 1425 1425 1425 1424
1318 1317 1316 1317 1318 1320 1323 1326 1330 1333 1336 1339 1342 1346 1350 1354 1358 1362 1366 1369 1372 1375 1379 1383 1387 1391 1394 1397 1400 1403 1405 1408 1410 1413 1415 1417 1419 1420 1422 1423 1422 1422 1421